Location: Antichan
(42.9728°N, 0.6667°E)
Time: 18:11:08
(UTC+00:00)

Iridium 4 Rocket - Pass Details

Date: 15 August 2020
Orbit: 586 x 903 km, 86.9° (Epoch: 19 September)

Event Time Altitude Azimuth Distance (km) Brightness Sun altitude
Exits shadow 22:18:29 39° 303° (WNW) 892 4.2 -28.6°
Drops below altitude 10° 22:21:47 10° 349° (NNW) 1,920 6.4 -28.9°
Sets 22:24:03 0° 356° (N) 2,824 7.4 -29.1°
